#�ϑ�����,���ϕ���,���ϕ���,�ő啗��,�ő啗����������,�ő�u�ԕ���,�ő�u�ԕ�����������
#(�N����),(m/s)   ,(16����),(m/s)   ,(16����)        ,(m/s)       ,(16����)            
2014/6/10 0:01,1.7,2,1.7,2,1.8,1
2014/6/10 0:02,1.6,2,1.7,2,1.9,3
2014/6/10 0:03,1.6,2,1.6,2,2.7,3
2014/6/10 0:04,1.5,2,1.6,2,2.5,3
2014/6/10 0:05,1.4,2,1.5,2,2,3
2014/6/10 0:06,1.4,2,1.4,2,2.1,2
2014/6/10 0:07,1.4,2,1.4,2,2,3
2014/6/10 0:08,1.3,2,1.4,2,1.6,3
2014/6/10 0:09,1.3,2,1.3,2,1.9,3
2014/6/10 0:10,1.2,2,1.2,2,1.9,5
2014/6/10 0:11,1.3,2,1.3,2,2.5,3
2014/6/10 0:12,1.3,3,1.3,2,2.2,4
2014/6/10 0:13,1.4,3,1.4,2,1.9,3
2014/6/10 0:14,1.4,3,1.4,2,2.2,3
2014/6/10 0:15,1.4,3,1.4,2,2,3
2014/6/10 0:16,1.4,3,1.4,2,2,2
2014/6/10 0:17,1.4,3,1.4,2,2,4
2014/6/10 0:18,1.4,3,1.4,3,1.8,3
2014/6/10 0:19,1.3,3,1.3,3,1.6,2
2014/6/10 0:20,1.3,2,1.4,3,1.9,3
2014/6/10 0:21,1.3,2,1.3,3,2.1,2
2014/6/10 0:22,1.3,2,1.3,3,2,2
2014/6/10 0:23,1.3,2,1.3,3,2.2,3
2014/6/10 0:24,1.3,2,1.3,3,2.2,3
2014/6/10 0:25,1.3,2,1.3,3,1.8,4
2014/6/10 0:26,1.2,2,1.3,3,2.1,3
2014/6/10 0:27,1.3,2,1.3,3,2.7,3
2014/6/10 0:28,1.3,3,1.3,3,2.4,4
2014/6/10 0:29,1.4,3,1.4,3,3,5
2014/6/10 0:30,1.4,3,1.4,3,1.5,4
2014/6/10 0:31,1.4,3,1.4,3,1.8,3
2014/6/10 0:32,1.3,3,1.4,3,1.3,2
2014/6/10 0:33,1.2,3,1.3,3,1.1,16
2014/6/10 0:34,1.2,3,1.2,3,1.3,3
2014/6/10 0:35,1.1,3,1.2,3,1.1,4
2014/6/10 0:36,1.1,2,1.1,3,1.5,1
2014/6/10 0:37,1.1,2,1.1,3,2,2
2014/6/10 0:38,1,2,1.1,3,2.2,2
2014/6/10 0:39,1,2,1,3,2.5,1
2014/6/10 0:40,1,2,1,3,2,3
2014/6/10 0:41,1,2,1.1,3,2.4,2
2014/6/10 0:42,1.1,2,1.1,3,2.6,2
2014/6/10 0:43,1.3,2,1.3,2,2.9,2
2014/6/10 0:44,1.4,2,1.4,2,2.6,2
2014/6/10 0:45,1.5,2,1.5,2,3.3,3
2014/6/10 0:46,1.7,2,1.7,2,3.2,3
2014/6/10 0:47,1.9,2,1.9,2,3.2,3
2014/6/10 0:48,1.9,2,1.9,2,2.9,3
2014/6/10 0:49,1.9,2,1.9,2,2.5,2
2014/6/10 0:50,2,2,2,2,2.9,3
2014/6/10 0:51,2,2,2,2,2.9,3
2014/6/10 0:52,2.1,3,2.1,3,3.7,3
2014/6/10 0:53,2,3,2.1,3,3.7,4
2014/6/10 0:54,2,3,2,3,3.5,2
2014/6/10 0:55,2,3,2,3,3,2
2014/6/10 0:56,1.9,2,2,3,3.1,1
2014/6/10 0:57,1.9,2,1.9,3,3.3,1
2014/6/10 0:58,1.9,2,1.9,3,3.8,2
2014/6/10 0:59,1.9,2,1.9,3,1.9,3
2014/6/10 1:00,1.9,2,1.9,3,2,2
2014/6/10 1:01,1.8,2,1.8,3,2.7,2
2014/6/10 1:02,1.8,2,1.8,3,3.3,2
2014/6/10 1:03,1.8,2,1.8,3,3.7,2
2014/6/10 1:04,1.8,2,1.8,3,2.2,16
2014/6/10 1:05,1.8,2,1.8,2,2.5,3
2014/6/10 1:06,1.8,2,1.8,2,2.7,1
2014/6/10 1:07,1.7,2,1.7,2,2.5,3
2014/6/10 1:08,1.6,2,1.7,2,3,4
2014/6/10 1:09,1.7,2,1.7,2,2.6,4
2014/6/10 1:10,1.7,2,1.7,2,2.7,3
2014/6/10 1:11,1.8,3,1.8,2,2.2,3
2014/6/10 1:12,1.7,3,1.7,2,1.9,4
2014/6/10 1:13,1.5,3,1.7,2,1.6,5
2014/6/10 1:14,1.4,3,1.5,2,1.8,2
2014/6/10 1:15,1.4,3,1.4,2,1.6,2
2014/6/10 1:16,1.4,3,1.4,2,3,2
2014/6/10 1:17,1.4,3,1.4,2,2.7,4
2014/6/10 1:18,1.4,3,1.4,2,2.1,3
2014/6/10 1:19,1.3,3,1.4,2,1.5,4
2014/6/10 1:20,1.3,3,1.3,2,1.6,5
2014/6/10 1:21,1.2,4,1.3,3,1.5,5
2014/6/10 1:22,1.2,4,1.2,3,1.8,5
2014/6/10 1:23,1.2,4,1.2,3,1.5,5
2014/6/10 1:24,1.3,4,1.3,3,1.3,5
2014/6/10 1:25,1.3,4,1.3,3,1.5,5
2014/6/10 1:26,1.2,4,1.3,3,1.1,6
2014/6/10 1:27,1.1,4,1.2,3,1,2
2014/6/10 1:28,1,4,1.1,3,1.1,3
2014/6/10 1:29,0.9,4,1,3,1,4
2014/6/10 1:30,0.9,4,0.9,3,0.8,5
2014/6/10 1:31,0.8,4,0.9,4,0.8,4
2014/6/10 1:32,0.8,4,0.8,4,1,4
2014/6/10 1:33,0.7,4,0.8,4,0.6,1
2014/6/10 1:34,0.7,4,0.7,4,1.6,2
2014/6/10 1:35,0.7,3,0.7,4,2.5,3
2014/6/10 1:36,0.7,3,0.7,4,2.2,4
2014/6/10 1:37,0.9,3,0.9,4,2.9,2
2014/6/10 1:38,1,3,1,4,3.3,4
2014/6/10 1:39,1.1,3,1.1,3,2.5,5
2014/6/10 1:40,1.3,3,1.3,3,3.1,6
2014/6/10 1:41,1.4,3,1.4,3,3.1,6
2014/6/10 1:42,1.6,3,1.6,3,3.1,3
2014/6/10 1:43,1.6,4,1.6,3,1.6,4
2014/6/10 1:44,1.7,4,1.7,4,2.5,4
2014/6/10 1:45,1.7,4,1.7,4,1.3,3
2014/6/10 1:46,1.6,4,1.6,4,2.9,5
2014/6/10 1:47,1.7,5,1.7,4,3.2,6
2014/6/10 1:48,1.7,5,1.7,4,2.6,5
2014/6/10 1:49,1.6,5,1.7,4,2.7,5
2014/6/10 1:50,1.5,5,1.6,4,1.5,5
2014/6/10 1:51,1.5,5,1.5,4,3.1,5
2014/6/10 1:52,1.5,5,1.5,4,2.5,6
2014/6/10 1:53,1.5,5,1.5,4,2.4,5
2014/6/10 1:54,1.6,5,1.6,4,2.4,5
2014/6/10 1:55,1.6,5,1.6,4,2.4,5
2014/6/10 1:56,1.7,5,1.7,4,2.7,2
2014/6/10 1:57,1.6,5,1.7,5,2.9,3
2014/6/10 1:58,1.6,4,1.6,5,2.6,3
2014/6/10 1:59,1.8,4,1.8,4,3.9,4
2014/6/10 2:00,2,4,2,4,3.7,3
2014/6/10 2:01,2,4,2.1,4,3.1,3
2014/6/10 2:02,2,3,2.1,4,2.7,1
2014/6/10 2:03,2.1,3,2.1,4,3.3,4
2014/6/10 2:04,2.2,3,2.2,3,3.7,2
2014/6/10 2:05,2.2,3,2.2,3,3,3
2014/6/10 2:06,2.3,3,2.3,3,3.3,2
2014/6/10 2:07,2.3,3,2.3,3,3.9,2
2014/6/10 2:08,2.4,3,2.4,3,3.5,2
2014/6/10 2:09,2.3,3,2.4,3,4.3,3
2014/6/10 2:10,2.2,2,2.3,3,3.6,3
2014/6/10 2:11,2.2,2,2.2,3,2.7,3
2014/6/10 2:12,2.3,2,2.3,3,3.5,3
2014/6/10 2:13,2.4,2,2.4,3,3.5,3
2014/6/10 2:14,2.3,2,2.4,3,3.6,3
2014/6/10 2:15,2.3,2,2.3,3,2.5,2
2014/6/10 2:16,2.2,2,2.3,3,2.7,3
2014/6/10 2:17,2.2,2,2.2,3,2.7,3
2014/6/10 2:18,2.2,3,2.2,3,3.2,3
2014/6/10 2:19,2.1,3,2.2,2,2.7,3
2014/6/10 2:20,2.2,3,2.2,2,3.5,3
2014/6/10 2:21,2.2,3,2.2,2,3.2,2
2014/6/10 2:22,2.1,3,2.2,2,2.4,2
2014/6/10 2:23,2.1,2,2.1,2,3.1,2
2014/6/10 2:24,2,2,2.1,2,2.5,2
2014/6/10 2:25,2,2,2,2,1.9,16
2014/6/10 2:26,1.9,2,1.9,2,1.5,2
2014/6/10 2:27,1.8,2,1.9,2,2,2
2014/6/10 2:28,1.9,2,1.9,3,4.8,2
2014/6/10 2:29,1.9,2,1.9,3,3.1,3
2014/6/10 2:30,1.7,2,1.9,3,2.4,2
2014/6/10 2:31,1.7,2,1.7,3,3.5,3
2014/6/10 2:32,1.7,2,1.7,3,2.9,3
2014/6/10 2:33,1.7,2,1.7,2,2.5,3
2014/6/10 2:34,1.7,2,1.7,2,2.4,3
2014/6/10 2:35,1.7,2,1.7,2,3.1,2
2014/6/10 2:36,1.7,3,1.7,2,1.3,16
2014/6/10 2:37,1.8,3,1.8,2,2.5,5
2014/6/10 2:38,1.6,3,1.8,2,2.4,2
2014/6/10 2:39,1.6,3,1.6,2,3,3
2014/6/10 2:40,1.8,3,1.8,3,3.5,3
2014/6/10 2:41,1.8,3,1.8,3,3,4
2014/6/10 2:42,1.8,3,1.8,3,2.1,3
2014/6/10 2:43,1.7,3,1.8,3,2.2,3
2014/6/10 2:44,1.7,3,1.7,3,2.1,3
2014/6/10 2:45,1.8,3,1.8,3,2.2,3
2014/6/10 2:46,1.8,3,1.8,3,3.1,3
2014/6/10 2:47,1.9,3,1.9,3,2.7,4
2014/6/10 2:48,1.9,3,1.9,3,2.1,3
2014/6/10 2:49,1.8,3,1.9,3,2,3
2014/6/10 2:50,1.6,3,1.8,3,1.6,3
2014/6/10 2:51,1.5,3,1.6,3,1.5,3
2014/6/10 2:52,1.5,3,1.5,3,2,2
2014/6/10 2:53,1.4,3,1.5,3,1.9,2
2014/6/10 2:54,1.4,3,1.4,3,2,3
2014/6/10 2:55,1.4,3,1.4,3,2.2,3
2014/6/10 2:56,1.4,3,1.5,3,2,5
2014/6/10 2:57,1.3,3,1.4,3,1.5,4
2014/6/10 2:58,1.3,3,1.3,3,1.5,6
2014/6/10 2:59,1.2,3,1.3,3,1.3,5
2014/6/10 3:00,1.2,3,1.2,3,1.3,3
2014/6/10 3:01,1.2,3,1.2,3,1.5,3
2014/6/10 3:02,1.2,4,1.2,3,2,4
2014/6/10 3:03,1.2,4,1.2,3,1.8,3
2014/6/10 3:04,1.2,4,1.2,3,1.8,3
2014/6/10 3:05,1.2,4,1.2,3,1.8,3
2014/6/10 3:06,1.2,4,1.2,3,1.8,3
2014/6/10 3:07,1.1,3,1.2,3,1.3,4
2014/6/10 3:08,1.1,3,1.1,3,1.5,4
2014/6/10 3:09,1.1,3,1.1,3,1.3,5
2014/6/10 3:10,1.1,3,1.1,3,1.6,5
2014/6/10 3:11,1.2,3,1.2,3,3.2,3
2014/6/10 3:12,1.3,3,1.3,3,3.1,3
2014/6/10 3:13,1.3,3,1.3,3,2.2,4
2014/6/10 3:14,1.2,3,1.3,3,1.1,3
2014/6/10 3:15,1.1,3,1.2,3,0.4,1
2014/6/10 3:16,1,3,1.1,3,0.9,1
2014/6/10 3:17,1,3,1,3,1,4
2014/6/10 3:18,1,3,1,3,1.8,3
2014/6/10 3:19,1.1,3,1.1,3,1.8,3
2014/6/10 3:20,1.1,2,1.1,3,2.2,3
2014/6/10 3:21,1.1,2,1.1,3,2.2,4
2014/6/10 3:22,1,2,1,3,2.5,3
2014/6/10 3:23,1,2,1.1,3,2.4,2
2014/6/10 3:24,1.1,2,1.1,3,2.7,2
2014/6/10 3:25,1.3,2,1.3,2,2.2,3
2014/6/10 3:26,1.4,2,1.4,3,2.5,3
2014/6/10 3:27,1.5,3,1.5,3,2.6,2
2014/6/10 3:28,1.5,3,1.5,3,2.6,3
2014/6/10 3:29,1.6,3,1.6,3,2.6,4
2014/6/10 3:30,1.6,3,1.6,3,2.6,5
2014/6/10 3:31,1.6,3,1.6,3,2.2,3
2014/6/10 3:32,1.7,3,1.7,3,3,3
2014/6/10 3:33,1.7,3,1.7,3,2,3
2014/6/10 3:34,1.6,3,1.7,3,1.8,3
2014/6/10 3:35,1.6,3,1.6,3,1.4,3
2014/6/10 3:36,1.5,3,1.5,3,1.4,3
2014/6/10 3:37,1.5,3,1.5,3,2.1,3
2014/6/10 3:38,1.5,3,1.5,3,2.4,3
2014/6/10 3:39,1.4,3,1.5,3,1.1,3
2014/6/10 3:40,1.3,3,1.4,3,1,4
2014/6/10 3:41,1.2,3,1.3,3,1.9,3
2014/6/10 3:42,1.1,3,1.2,3,1.4,4
2014/6/10 3:43,1.1,3,1.1,3,1.8,4
2014/6/10 3:44,1.1,3,1.1,3,1.5,4
2014/6/10 3:45,1.1,4,1.1,3,1.1,4
2014/6/10 3:46,1,4,1.1,3,1,5
2014/6/10 3:47,1,4,1,3,1.1,5
2014/6/10 3:48,0.9,4,1,3,1.4,4
2014/6/10 3:49,0.9,4,0.9,3,1.3,5
2014/6/10 3:50,0.9,4,0.9,3,1,5
2014/6/10 3:51,1,4,1,3,1.9,3
2014/6/10 3:52,1,4,1,3,2,3
2014/6/10 3:53,1.1,4,1.1,3,2.7,2
2014/6/10 3:54,1.1,4,1.1,3,2.4,3
2014/6/10 3:55,1.2,4,1.2,4,1.9,3
2014/6/10 3:56,1.3,3,1.3,4,2.1,3
2014/6/10 3:57,1.4,3,1.4,3,2.1,2
2014/6/10 3:58,1.4,3,1.4,3,2.4,2
2014/6/10 3:59,1.4,3,1.4,3,1.6,2
2014/6/10 4:00,1.5,3,1.5,3,1.4,2
2014/6/10 4:01,1.4,3,1.5,3,1.6,3
2014/6/10 4:02,1.4,2,1.4,3,1.8,3
2014/6/10 4:03,1.3,2,1.4,3,1.4,2
2014/6/10 4:04,1.3,2,1.3,3,1.3,3
2014/6/10 4:05,1.2,2,1.3,3,1.5,2
2014/6/10 4:06,1.1,2,1.2,3,1.6,2
2014/6/10 4:07,1.1,2,1.1,3,1,1
2014/6/10 4:08,1,2,1.1,3,2,2
2014/6/10 4:09,1,2,1,3,1.8,2
2014/6/10 4:10,1,2,1.1,3,1.5,2
2014/6/10 4:11,1,2,1,3,1.5,2
2014/6/10 4:12,1.1,2,1.1,2,2.1,4
2014/6/10 4:13,1.2,2,1.2,2,2.4,3
2014/6/10 4:14,1.2,2,1.2,2,2.1,4
2014/6/10 4:15,1.2,2,1.2,2,1.6,3
2014/6/10 4:16,1.2,2,1.2,2,1.8,3
2014/6/10 4:17,1.3,2,1.3,2,1.6,3
2014/6/10 4:18,1.4,3,1.4,3,1.9,4
2014/6/10 4:19,1.4,3,1.4,3,1.9,4
2014/6/10 4:20,1.4,3,1.4,3,2.2,4
2014/6/10 4:21,1.5,3,1.5,3,2.5,3
2014/6/10 4:22,1.5,3,1.5,3,2.9,3
2014/6/10 4:23,1.5,3,1.5,3,3.1,3
2014/6/10 4:24,1.6,3,1.6,3,3.1,3
2014/6/10 4:25,1.7,3,1.7,3,3,2
2014/6/10 4:26,1.7,3,1.7,3,2,3
2014/6/10 4:27,1.7,3,1.7,3,1.8,2
2014/6/10 4:28,1.6,3,1.7,3,2.2,3
2014/6/10 4:29,1.7,2,1.7,3,3,4
2014/6/10 4:30,1.8,3,1.8,3,2.7,3
2014/6/10 4:31,1.7,3,1.8,3,2.6,4
2014/6/10 4:32,1.8,2,1.8,3,2.9,3
2014/6/10 4:33,1.8,2,1.8,3,2.9,3
2014/6/10 4:34,1.8,2,1.8,3,2.6,2
2014/6/10 4:35,1.8,2,1.8,3,2.7,2
2014/6/10 4:36,1.8,2,1.8,3,2.2,2
2014/6/10 4:37,1.8,3,1.8,3,2.1,3
2014/6/10 4:38,1.9,3,1.9,3,3.1,3
2014/6/10 4:39,1.9,3,2,3,3,3
2014/6/10 4:40,1.9,3,1.9,3,3,3
2014/6/10 4:41,2,3,2,3,3.5,3
2014/6/10 4:42,2,3,2,3,3.6,2
2014/6/10 4:43,2.1,3,2.1,3,3.7,3
2014/6/10 4:44,2.1,3,2.1,3,3,3
2014/6/10 4:45,2.1,3,2.1,3,2.6,2
2014/6/10 4:46,2.2,3,2.2,3,3.2,3
2014/6/10 4:47,2.1,3,2.2,3,2.4,2
2014/6/10 4:48,2.2,3,2.2,3,3.5,3
2014/6/10 4:49,2.3,3,2.3,3,3.6,3
2014/6/10 4:50,2.3,3,2.3,3,2.7,3
2014/6/10 4:51,2.2,3,2.3,3,2.9,3
2014/6/10 4:52,2.1,3,2.2,3,2.5,3
2014/6/10 4:53,2,3,2.1,3,3.2,3
2014/6/10 4:54,2,3,2,3,3.1,3
2014/6/10 4:55,1.9,3,2,3,2.4,3
2014/6/10 4:56,1.9,3,1.9,3,2.7,3
2014/6/10 4:57,2,3,2,3,3,2
2014/6/10 4:58,1.9,3,2,3,3,3
2014/6/10 4:59,1.9,3,1.9,3,2.9,3
2014/6/10 5:00,1.9,3,1.9,3,3.7,4
2014/6/10 5:01,2,3,2,3,3.2,3
2014/6/10 5:02,2.1,3,2.1,3,3.6,3
2014/6/10 5:03,2.2,3,2.2,3,3.3,3
2014/6/10 5:04,2.3,3,2.3,3,3,3
2014/6/10 5:05,2.3,3,2.3,3,2.2,2
2014/6/10 5:06,2.3,3,2.3,3,3.3,2
2014/6/10 5:07,2.4,3,2.4,3,4.7,3
2014/6/10 5:08,2.4,3,2.4,3,3.3,2
2014/6/10 5:09,2.3,2,2.4,3,2.9,2
2014/6/10 5:10,2.2,2,2.3,3,2.4,2
2014/6/10 5:11,2.2,2,2.2,3,2.7,3
2014/6/10 5:12,2.1,2,2.2,3,2.7,3
2014/6/10 5:13,2,2,2.1,3,2.7,3
2014/6/10 5:14,1.9,2,2,3,3.1,3
2014/6/10 5:15,2,2,2,3,3.7,2
2014/6/10 5:16,2,2,2.1,3,3.6,2
2014/6/10 5:17,1.9,2,2,3,3.5,3
2014/6/10 5:18,1.9,2,1.9,3,3.1,3
2014/6/10 5:19,1.9,2,1.9,2,2.9,3
2014/6/10 5:20,1.9,2,1.9,2,2.9,3
2014/6/10 5:21,1.9,2,1.9,2,2.4,3
2014/6/10 5:22,1.8,2,1.9,2,2.4,3
2014/6/10 5:23,1.8,2,1.8,2,2,2
2014/6/10 5:24,1.8,2,1.9,2,2.6,3
2014/6/10 5:25,1.8,2,1.8,2,2.7,2
2014/6/10 5:26,1.7,2,1.8,2,2.1,2
2014/6/10 5:27,1.7,2,1.7,2,2.7,3
2014/6/10 5:28,1.7,2,1.7,2,2.7,2
2014/6/10 5:29,1.7,2,1.7,2,2.6,4
2014/6/10 5:30,1.7,2,1.7,2,2.6,3
2014/6/10 5:31,1.7,2,1.7,2,2.2,1
2014/6/10 5:32,1.6,2,1.7,2,1.9,1
2014/6/10 5:33,1.6,2,1.7,2,2.5,2
2014/6/10 5:34,1.6,2,1.6,2,2.5,2
2014/6/10 5:35,1.6,2,1.6,2,2.7,3
2014/6/10 5:36,1.6,2,1.6,2,1.9,1
2014/6/10 5:37,1.5,2,1.6,2,1.6,2
2014/6/10 5:38,1.3,2,1.5,2,0.8,4
2014/6/10 5:39,1.3,2,1.3,2,1.3,3
2014/6/10 5:40,1.2,2,1.3,2,1.9,3
2014/6/10 5:41,1.1,3,1.2,2,0.9,5
2014/6/10 5:42,1,3,1.1,2,1.1,7
2014/6/10 5:43,0.9,4,1,2,0.8,6
2014/6/10 5:44,0.8,4,0.9,2,1,6
2014/6/10 5:45,0.7,4,0.8,2,1.5,6
2014/6/10 5:46,0.7,5,0.7,2,2.1,6
2014/6/10 5:47,0.8,5,0.8,2,2.4,6
2014/6/10 5:48,0.9,5,0.9,2,1.9,6
2014/6/10 5:49,1.1,5,1.1,2,2.5,3
2014/6/10 5:50,1.1,5,1.1,2,2.2,2
2014/6/10 5:51,1.2,5,1.2,5,2.6,5
2014/6/10 5:52,1.3,5,1.3,5,2.7,3
2014/6/10 5:53,1.5,5,1.5,5,4.1,4
2014/6/10 5:54,1.7,4,1.7,4,4.1,4
2014/6/10 5:55,1.8,4,1.8,4,3,5
2014/6/10 5:56,1.9,4,1.9,4,3,5
2014/6/10 5:57,1.8,4,1.9,4,2.6,6
2014/6/10 5:58,1.9,5,1.9,4,2.5,5
2014/6/10 5:59,1.9,5,1.9,4,3.2,6
2014/6/10 6:00,2,5,2,5,3.5,6
2014/6/10 6:01,1.9,5,2,5,1.9,7
2014/6/10 6:02,1.7,6,1.9,5,1,6
2014/6/10 6:03,1.5,6,1.7,5,0.8,6
2014/6/10 6:04,1.3,6,1.5,5,0.5,7
2014/6/10 6:05,1.2,6,1.3,5,1.5,6
2014/6/10 6:06,1.1,6,1.1,5,1.9,1
2014/6/10 6:07,1.3,6,1.3,5,4.1,3
2014/6/10 6:08,1.3,6,1.4,5,3.6,3
2014/6/10 6:09,1.3,6,1.4,5,3.3,6
2014/6/10 6:10,1.3,6,1.3,5,2.5,6
2014/6/10 6:11,1.4,6,1.4,6,2.1,6
2014/6/10 6:12,1.5,5,1.5,6,2.6,7
2014/6/10 6:13,1.7,5,1.7,5,3.2,6
2014/6/10 6:14,1.9,5,1.9,5,3.3,6
2014/6/10 6:15,2,5,2,5,3,4
2014/6/10 6:16,2.1,5,2.1,5,2.6,5
2014/6/10 6:17,2,5,2.1,5,3,5
2014/6/10 6:18,1.9,5,1.9,5,2.5,5
2014/6/10 6:19,1.9,5,1.9,5,3.1,4
2014/6/10 6:20,1.9,5,1.9,5,2.9,2
2014/6/10 6:21,2,5,2,5,2.9,4
2014/6/10 6:22,2,5,2,5,3.2,4
2014/6/10 6:23,2,5,2.1,5,3.3,3
2014/6/10 6:24,2,4,2,5,2.5,4
2014/6/10 6:25,1.9,5,1.9,5,2.1,6
2014/6/10 6:26,1.8,5,1.9,5,2.2,5
2014/6/10 6:27,1.9,5,1.9,5,2.9,7
2014/6/10 6:28,1.9,5,1.9,5,2.6,5
2014/6/10 6:29,1.9,5,1.9,5,2.7,5
2014/6/10 6:30,1.9,5,1.9,5,2.7,7
2014/6/10 6:31,1.9,5,1.9,5,2.6,6
2014/6/10 6:32,1.8,5,1.9,5,3.6,6
2014/6/10 6:33,1.8,6,1.9,5,2.4,6
2014/6/10 6:34,1.7,6,1.8,4,2.1,7
2014/6/10 6:35,1.7,6,1.7,5,2.2,4
2014/6/10 6:36,1.7,6,1.7,5,3.2,4
2014/6/10 6:37,1.8,6,1.8,5,3.8,6
2014/6/10 6:38,1.9,6,1.9,5,3.7,7
2014/6/10 6:39,1.9,6,1.9,5,3.2,5
2014/6/10 6:40,2,6,2,6,3.7,6
2014/6/10 6:41,2,6,2,6,2.9,5
2014/6/10 6:42,2,6,2,6,3.2,5
2014/6/10 6:43,2,6,2,6,2.9,5
2014/6/10 6:44,2.1,6,2.1,6,2.7,6
2014/6/10 6:45,2.2,5,2.2,6,2.9,5
2014/6/10 6:46,2.2,5,2.2,6,3,5
2014/6/10 6:47,2.1,5,2.2,6,2,7
2014/6/10 6:48,1.9,5,2.1,6,1.8,6
2014/6/10 6:49,1.9,5,1.9,6,2.7,6
2014/6/10 6:50,1.7,5,1.9,6,1.3,6
2014/6/10 6:51,1.5,5,1.7,6,1.3,6
2014/6/10 6:52,1.5,6,1.5,6,2.2,6
2014/6/10 6:53,1.4,5,1.4,6,2.5,3
2014/6/10 6:54,1.4,5,1.4,6,3,3
2014/6/10 6:55,1.4,5,1.4,5,2.7,4
2014/6/10 6:56,1.4,5,1.4,5,2,4
2014/6/10 6:57,1.4,5,1.4,5,2.1,4
2014/6/10 6:58,1.5,5,1.5,5,2.9,5
2014/6/10 6:59,1.6,5,1.6,5,3.3,5
2014/6/10 7:00,1.7,4,1.7,5,2.9,3
2014/6/10 7:01,1.9,4,1.9,4,3.8,5
2014/6/10 7:02,2,4,2,4,3.7,4
2014/6/10 7:03,2.1,4,2.1,4,3.2,4
2014/6/10 7:04,2.1,4,2.2,4,3,4
2014/6/10 7:05,2.1,4,2.1,4,2.4,3
2014/6/10 7:06,2.1,4,2.1,4,2.4,3
2014/6/10 7:07,2.1,4,2.1,4,2.9,4
2014/6/10 7:08,2.1,4,2.1,4,2.7,4
2014/6/10 7:09,1.9,4,2.1,4,2.1,3
2014/6/10 7:10,1.8,4,1.9,4,1.1,5
2014/6/10 7:11,1.6,4,1.8,4,0.8,7
2014/6/10 7:12,1.4,4,1.6,4,2.1,3
2014/6/10 7:13,1.3,4,1.4,4,1.5,4
2014/6/10 7:14,1.1,4,1.3,4,1.3,3
2014/6/10 7:15,1.1,4,1.1,4,1.6,4
2014/6/10 7:16,1,4,1.1,4,1.4,6
2014/6/10 7:17,0.9,5,1,4,1.1,4
2014/6/10 7:18,0.8,5,0.9,4,1.1,4
2014/6/10 7:19,0.8,5,0.8,4,0.9,8
2014/6/10 7:20,0.8,5,0.8,4,1.3,3
2014/6/10 7:21,0.8,5,0.8,4,1.5,4
2014/6/10 7:22,0.8,5,0.8,4,1.5,4
2014/6/10 7:23,0.9,5,0.9,4,2.9,4
2014/6/10 7:24,1,5,1,4,3.1,5
2014/6/10 7:25,1,5,1,4,2.4,6
2014/6/10 7:26,1.1,5,1.1,5,2.7,4
2014/6/10 7:27,1.3,5,1.3,5,3.2,5
2014/6/10 7:28,1.5,5,1.5,5,3,5
2014/6/10 7:29,1.6,5,1.6,5,2.4,4
2014/6/10 7:30,1.6,5,1.6,5,1.8,6
2014/6/10 7:31,1.7,5,1.7,5,2.4,4
2014/6/10 7:32,1.8,5,1.8,5,3.8,4
2014/6/10 7:33,1.9,5,1.9,5,4.3,4
2014/6/10 7:34,1.9,5,1.9,5,4.1,5
2014/6/10 7:35,2,5,2,5,3.7,4
2014/6/10 7:36,2,5,2,5,2.7,4
2014/6/10 7:37,2,4,2,5,3.2,5
2014/6/10 7:38,1.9,4,2,5,2.5,4
2014/6/10 7:39,1.9,4,1.9,5,2.1,5
2014/6/10 7:40,2,4,2,5,2.5,5
2014/6/10 7:41,2.1,5,2.1,5,3.9,5
2014/6/10 7:42,2.1,5,2.1,5,3.5,5
2014/6/10 7:43,2.2,5,2.2,5,3.8,6
2014/6/10 7:44,2.2,5,2.3,5,4.1,5
2014/6/10 7:45,2.2,5,2.2,5,2.5,5
2014/6/10 7:46,2.2,5,2.2,5,3.9,5
2014/6/10 7:47,2.1,5,2.2,5,3.1,5
2014/6/10 7:48,2.1,5,2.1,5,2,7
2014/6/10 7:49,2,5,2.1,5,1.1,5
2014/6/10 7:50,1.9,5,1.9,5,2.6,4
2014/6/10 7:51,1.9,5,2,5,2.7,4
2014/6/10 7:52,1.9,5,1.9,5,3.3,5
2014/6/10 7:53,1.7,5,1.9,5,2.7,4
2014/6/10 7:54,1.6,5,1.7,5,2.4,5
2014/6/10 7:55,1.6,5,1.6,5,3.2,6
2014/6/10 7:56,1.7,5,1.7,5,3.7,5
2014/6/10 7:57,1.7,5,1.7,5,2.9,5
2014/6/10 7:58,1.8,5,1.8,5,3.1,5
2014/6/10 7:59,2,5,2,5,3.1,4
2014/6/10 8:00,2,5,2,5,2.1,5
2014/6/10 8:01,2.1,5,2.1,5,3.7,5
2014/6/10 8:02,2.2,5,2.2,5,3.6,5
2014/6/10 8:03,2.2,5,2.2,5,3.3,4
2014/6/10 8:04,2.4,5,2.4,5,4.2,5
2014/6/10 8:05,2.4,5,2.4,5,3.7,4
2014/6/10 8:06,2.4,5,2.4,5,2.7,4
2014/6/10 8:07,2.4,5,2.5,5,3.1,5
2014/6/10 8:08,2.4,5,2.5,5,2.9,5
2014/6/10 8:09,2.4,5,2.4,5,3.2,3
2014/6/10 8:10,2.5,4,2.5,5,3.3,2
2014/6/10 8:11,2.4,4,2.5,5,2.6,4
2014/6/10 8:12,2.3,4,2.4,5,2.9,4
2014/6/10 8:13,2.3,4,2.3,5,2.4,4
2014/6/10 8:14,2.1,4,2.2,5,2,3
2014/6/10 8:15,2,4,2.1,5,2.7,5
2014/6/10 8:16,2,4,2,5,2.6,5
2014/6/10 8:17,1.9,4,1.9,5,2.7,3
2014/6/10 8:18,1.8,4,1.9,5,2.2,3
2014/6/10 8:19,1.7,4,1.8,5,2.2,3
2014/6/10 8:20,1.6,4,1.7,4,2.2,5
2014/6/10 8:21,1.6,4,1.6,4,2.2,4
2014/6/10 8:22,1.5,4,1.6,4,2,3
2014/6/10 8:23,1.5,4,1.5,4,3,3
2014/6/10 8:24,1.6,4,1.6,4,2.4,4
2014/6/10 8:25,1.6,4,1.6,4,2.2,3
2014/6/10 8:26,1.6,3,1.6,4,3,3
2014/6/10 8:27,1.6,3,1.7,4,2.6,3
2014/6/10 8:28,1.7,3,1.7,4,2.9,3
2014/6/10 8:29,1.8,3,1.8,3,2.9,3
2014/6/10 8:30,1.8,3,1.8,3,2.6,3
2014/6/10 8:31,1.8,3,1.8,3,2.1,5
2014/6/10 8:32,1.8,3,1.8,3,1.9,3
2014/6/10 8:33,1.7,3,1.8,3,2.2,3
2014/6/10 8:34,1.6,3,1.7,3,1.9,3
2014/6/10 8:35,1.6,3,1.6,3,1.8,3
2014/6/10 8:36,1.6,3,1.6,3,3.5,3
2014/6/10 8:37,1.6,3,1.6,3,3.1,4
2014/6/10 8:38,1.6,3,1.6,3,2.2,4
2014/6/10 8:39,1.5,4,1.6,3,2.2,3
2014/6/10 8:40,1.5,3,1.5,3,2,3
2014/6/10 8:41,1.5,3,1.5,3,3,3
2014/6/10 8:42,1.5,3,1.5,3,2.2,3
2014/6/10 8:43,1.6,3,1.6,3,2.7,3
2014/6/10 8:44,1.7,3,1.7,3,3,4
2014/6/10 8:45,1.8,3,1.8,3,3.2,4
2014/6/10 8:46,1.8,4,1.8,3,3.2,4
2014/6/10 8:47,1.8,4,1.8,3,2.7,5
2014/6/10 8:48,1.9,4,1.9,4,4.4,3
2014/6/10 8:49,2.1,3,2.1,4,4.7,3
2014/6/10 8:50,2.3,4,2.3,4,3.9,3
2014/6/10 8:51,2.4,4,2.5,4,4.2,4
2014/6/10 8:52,2.5,4,2.5,4,3.8,5
2014/6/10 8:53,2.5,4,2.5,4,3.3,4
2014/6/10 8:54,2.5,4,2.5,4,3,4
2014/6/10 8:55,2.5,4,2.5,4,3.7,3
2014/6/10 8:56,2.5,4,2.5,4,4.3,3
2014/6/10 8:57,2.6,3,2.6,4,3,3
2014/6/10 8:58,2.4,4,2.6,4,2.7,6
2014/6/10 8:59,2.3,4,2.4,4,2.6,3
2014/6/10 9:00,2.1,4,2.2,4,2.4,3
2014/6/10 9:01,2,4,2.1,4,2.5,3
2014/6/10 9:02,1.9,4,2,4,2.2,3
2014/6/10 9:03,1.9,3,1.9,4,2.7,4
2014/6/10 9:04,1.9,3,1.9,4,2,2
2014/6/10 9:05,1.7,3,1.9,4,1.5,2
2014/6/10 9:06,1.6,3,1.7,4,1.9,3
2014/6/10 9:07,1.5,3,1.6,3,2.2,3
2014/6/10 9:08,1.6,3,1.6,4,2.7,5
2014/6/10 9:09,1.5,3,1.6,4,2.7,6
2014/6/10 9:10,1.5,3,1.5,4,2.1,2
2014/6/10 9:11,1.4,3,1.5,4,2.1,2
2014/6/10 9:12,1.4,3,1.4,4,2.2,3
2014/6/10 9:13,1.3,3,1.4,3,1.1,5
2014/6/10 9:14,1.2,3,1.3,3,1.1,4
2014/6/10 9:15,1.3,3,1.3,3,2.6,3
2014/6/10 9:16,1.2,3,1.3,3,2.4,3
2014/6/10 9:17,1.2,3,1.2,3,2.2,3
2014/6/10 9:18,1.3,3,1.3,3,2.9,3
2014/6/10 9:19,1.2,3,1.2,3,2.2,2
2014/6/10 9:20,1.3,3,1.3,3,3.3,3
2014/6/10 9:21,1.4,4,1.4,3,2.5,3
2014/6/10 9:22,1.4,3,1.4,3,2.9,4
2014/6/10 9:23,1.6,3,1.6,3,2.7,4
2014/6/10 9:24,1.7,4,1.7,4,2.2,5
2014/6/10 9:25,1.7,4,1.7,4,1.9,5
2014/6/10 9:26,1.6,4,1.7,4,1,3
2014/6/10 9:27,1.5,4,1.6,4,0.9,4
2014/6/10 9:28,1.4,4,1.5,4,1,5
2014/6/10 9:29,1.4,4,1.4,4,1.8,4
2014/6/10 9:30,1.3,4,1.4,4,1.8,3
2014/6/10 9:31,1.2,4,1.2,4,1.5,3
2014/6/10 9:32,1.2,4,1.2,4,1.9,4
2014/6/10 9:33,1.1,4,1.2,4,1.9,5
2014/6/10 9:34,1,4,1.1,4,1.9,3
2014/6/10 9:35,1,3,1,4,1.6,3
2014/6/10 9:36,1.1,3,1.1,4,1.5,3
2014/6/10 9:37,1.2,3,1.2,4,1.6,3
2014/6/10 9:38,1.2,3,1.2,4,1.3,3
2014/6/10 9:39,1.2,3,1.2,4,1.4,3
2014/6/10 9:40,1.2,3,1.2,4,1.6,4
2014/6/10 9:41,1.1,3,1.2,4,0.9,4
2014/6/10 9:42,1,3,1.1,4,0.1,2
2014/6/10 9:43,0.9,3,1,3,0.1,5
2014/6/10 9:44,0.8,3,0.9,3,1,6
2014/6/10 9:45,0.8,4,0.8,3,1.1,6
2014/6/10 9:46,0.7,4,0.7,3,1.6,5
2014/6/10 9:47,0.7,4,0.7,3,1.8,4
2014/6/10 9:48,0.8,4,0.8,3,2.6,3
2014/6/10 9:49,0.8,4,0.8,3,2.5,5
2014/6/10 9:50,0.8,4,0.8,3,2,3
2014/6/10 9:51,1,4,1,3,2.7,4
2014/6/10 9:52,1.1,4,1.1,4,1.4,4
2014/6/10 9:53,1.1,4,1.1,4,1,2
2014/6/10 9:54,1.2,4,1.2,4,3,3
2014/6/10 9:55,1.2,4,1.2,4,1.8,3
2014/6/10 9:56,1.3,4,1.3,4,1.6,4
2014/6/10 9:57,1.3,3,1.3,4,1.4,1
2014/6/10 9:58,1.2,3,1.3,4,1.8,2
2014/6/10 9:59,1.1,3,1.2,4,2,3
2014/6/10 10:00,1.1,3,1.1,4,1.9,3
2014/6/10 10:01,1,3,1.1,4,1.9,4
2014/6/10 10:02,1.1,3,1.1,4,2.9,9
2014/6/10 10:03,1.1,4,1.1,4,2,9
2014/6/10 10:04,1.1,4,1.1,4,2.5,6
2014/6/10 10:05,1,4,1.1,4,1.5,4
2014/6/10 10:06,1,4,1,4,1.5,3
2014/6/10 10:07,0.9,3,1,3,1.1,16
2014/6/10 10:08,0.9,3,0.9,3,0.9,16
2014/6/10 10:09,0.9,3,0.9,3,1.8,13
2014/6/10 10:10,0.9,15,0.9,3,1.6,14
2014/6/10 10:11,0.8,14,0.9,3,0.8,13
2014/6/10 10:12,0.7,14,0.8,3,0.6,13
2014/6/10 10:13,0.6,13,0.7,4,0.3,11
2014/6/10 10:14,0.6,14,0.6,4,0.5,1
2014/6/10 10:15,0.6,14,0.6,4,2.1,3
2014/6/10 10:16,0.7,14,0.7,4,2.5,3
2014/6/10 10:17,0.7,14,0.7,3,2.4,3
2014/6/10 10:18,0.7,13,0.7,3,1,8
2014/6/10 10:19,0.7,9,0.7,3,2.4,6
2014/6/10 10:20,0.8,6,0.8,15,2.5,7
2014/6/10 10:21,0.8,6,0.8,13,1.4,6
2014/6/10 10:22,0.9,5,0.9,5,1.5,4
2014/6/10 10:23,0.9,4,0.9,5,1,1
2014/6/10 10:24,1,4,1,4,1.5,3
2014/6/10 10:25,1,4,1,4,1.4,5
2014/6/10 10:26,0.9,5,0.9,4,1.1,5
2014/6/10 10:27,0.8,5,0.9,4,1,6
2014/6/10 10:28,0.9,5,0.9,4,2.7,2
2014/6/10 10:29,1,4,1,4,3.1,3
2014/6/10 10:30,1,4,1,4,2.6,3
2014/6/10 10:31,1.1,3,1.1,4,2.6,3
2014/6/10 10:32,1.2,3,1.2,3,2.9,4
2014/6/10 10:33,1.3,4,1.3,4,2,5
2014/6/10 10:34,1.3,4,1.3,4,3.1,7
2014/6/10 10:35,1.4,4,1.4,4,3,6
2014/6/10 10:36,1.5,5,1.5,5,2,6
2014/6/10 10:37,1.7,5,1.7,5,3.8,6
2014/6/10 10:38,1.7,5,1.7,5,2.7,8
2014/6/10 10:39,1.8,5,1.8,5,4.4,5
2014/6/10 10:40,1.8,6,1.8,5,3.5,6
2014/6/10 10:41,1.9,6,1.9,6,3.8,6
2014/6/10 10:42,2,6,2,6,3.2,6
2014/6/10 10:43,2.1,6,2.1,6,3.7,7
2014/6/10 10:44,2.2,6,2.2,6,3.3,6
2014/6/10 10:45,2.1,6,2.2,6,1.8,7
2014/6/10 10:46,2.1,6,2.1,6,1.4,7
2014/6/10 10:47,1.9,6,2.1,6,2.4,4
2014/6/10 10:48,2,6,2,6,3.3,5
2014/6/10 10:49,1.9,6,2,6,2.7,6
2014/6/10 10:50,1.8,6,1.9,6,1.6,6
2014/6/10 10:51,1.7,6,1.8,6,1.8,1
2014/6/10 10:52,1.5,5,1.6,6,2.2,3
2014/6/10 10:53,1.5,5,1.5,6,2.5,3
2014/6/10 10:54,1.4,5,1.5,6,2.9,4
2014/6/10 10:55,1.5,5,1.5,6,3,5
2014/6/10 10:56,1.5,4,1.5,6,2,5
2014/6/10 10:57,1.5,4,1.5,6,1.1,5
2014/6/10 10:58,1.5,4,1.5,6,3.5,5
2014/6/10 10:59,1.6,4,1.6,6,3.3,6
2014/6/10 11:00,1.7,5,1.7,6,3.3,6
2014/6/10 11:01,1.8,5,1.8,5,3.3,6
2014/6/10 11:02,1.8,5,1.8,5,2.5,6
2014/6/10 11:03,1.7,5,1.8,5,1.4,6
2014/6/10 11:04,1.6,5,1.7,5,1.3,5
2014/6/10 11:05,1.5,5,1.6,5,1.5,5
2014/6/10 11:06,1.6,6,1.6,5,3,7
2014/6/10 11:07,1.8,6,1.8,5,4.3,6
2014/6/10 11:08,2,6,2,6,4.7,5
2014/6/10 11:09,2,6,2,6,4.5,5
2014/6/10 11:10,2,6,2,6,2.9,5
2014/6/10 11:11,1.9,5,1.9,6,2.4,4
2014/6/10 11:12,1.9,5,1.9,6,2.1,5
2014/6/10 11:13,2.1,5,2.1,5,3,6
2014/6/10 11:14,2.1,5,2.1,5,3.7,8
2014/6/10 11:15,2.4,6,2.4,6,5.2,8
2014/6/10 11:16,2.4,6,2.4,6,5.1,7
2014/6/10 11:17,2.4,6,2.4,6,4.5,6
2014/6/10 11:18,2.4,6,2.4,6,5.4,8
2014/6/10 11:19,2.5,7,2.5,7,6.1,8
2014/6/10 11:20,2.5,7,2.5,7,3.6,7
2014/6/10 11:21,2.6,7,2.6,7,3.6,7
2014/6/10 11:22,2.5,7,2.6,7,2,9
2014/6/10 11:23,2.4,7,2.5,7,3.7,4
2014/6/10 11:24,2.6,7,2.6,7,4.8,6
2014/6/10 11:25,2.5,6,2.5,7,3.9,6
2014/6/10 11:26,2.4,6,2.5,7,3.1,5
2014/6/10 11:27,2.3,5,2.4,7,3.8,5
2014/6/10 11:28,2.3,5,2.3,7,4.1,5
2014/6/10 11:29,2.2,5,2.3,7,4.2,3
2014/6/10 11:30,2.2,4,2.2,7,3.6,3
2014/6/10 11:31,2.2,4,2.2,7,4.4,5
2014/6/10 11:32,2.4,4,2.4,7,3.3,4
2014/6/10 11:33,2.5,4,2.5,7,3.9,4
2014/6/10 11:34,2.6,4,2.6,4,4.8,4
2014/6/10 11:35,2.6,4,2.7,4,3.9,2
2014/6/10 11:36,2.6,4,2.6,4,2.9,3
2014/6/10 11:37,2.7,4,2.7,4,3.9,4
2014/6/10 11:38,2.5,4,2.7,4,2,7
2014/6/10 11:39,2.3,4,2.5,4,1.9,4
2014/6/10 11:40,2.3,4,2.3,4,3.1,5
2014/6/10 11:41,2.4,4,2.4,4,5.1,5
2014/6/10 11:42,2.3,5,2.4,4,3.5,4
2014/6/10 11:43,2.2,5,2.3,4,2.5,6
2014/6/10 11:44,2,5,2.2,4,3.1,6
2014/6/10 11:45,1.9,5,2,4,2.4,7
2014/6/10 11:46,1.8,6,1.9,4,1.6,8
2014/6/10 11:47,1.6,6,1.8,4,1,10
2014/6/10 11:48,1.6,6,1.6,4,1.1,4
2014/6/10 11:49,1.6,6,1.6,4,1.5,5
2014/6/10 11:50,1.5,6,1.6,4,2.2,9
2014/6/10 11:51,1.4,7,1.5,4,3.9,5